Location: Unspecified
(0.0000°N, 0.0000°E)
Time: 12:21:07
(UTC+02:00)

Cosmos 1515 Rocket - Visible Passes

Search period start: 23 September 2014 00:00
Search period end: 03 October 2014 00:00
Orbit: 608 x 632 km, 82.5° (Epoch: 22 September)

Date Brightness Start Highest point End Pass type
(mag) Time Alt. Az. Time Alt. Az. Time Alt. Az.
23 Sep 3.9 21:15:30 10° SSW 21:19:54 65° W 21:24:19 10° N visible
24 Sep 5.7 21:33:45 10° SW 21:37:32 27° W 21:41:19 10° NNW visible
25 Sep 4.6 20:13:52 10° SSE 20:17:34 26° E 20:21:14 10° NE visible
25 Sep 6.8 21:53:23 10° WSW 21:55:09 12° W 21:56:56 10° WNW visible
26 Sep 3.6 20:30:48 10° S 20:35:11 59° E 20:39:34 10° NNE visible
27 Sep 4.3 20:48:26 10° SSW 20:52:49 57° W 20:57:11 10° N visible
28 Sep 6.0 21:06:48 10° SW 21:10:26 25° W 21:14:03 10° NNW visible
29 Sep 7.1 21:26:59 10° W 21:28:03 11° W 21:29:07 10° WNW visible
01 Oct 4.7 20:21:23 10° SSW 20:25:42 50° W 20:30:01 10° N visible
02 Oct 6.4 20:39:52 10° SW 20:43:19 22° W 20:46:46 10° NW visible
